Flag for Germany Weather past 2 weeks in Heidelberg, Baden-Württemberg, Germany

Now
48 °F

Broken clouds.


Feels Like: 42 °F
Forecast: 34 / 48 °F
Wind: 15 mph from West

Location: Baden Wurttemberg - Neuostheim

Current Time: Apr 1, 2015 at 3:58:43 PM

Latest Report: Apr 1, 2015 at 3:20 PM


Visibility: N/A

Pressure: 30.09 "Hg

Humidity: 46%

Dew point: 28 °F

Location of HeidelbergLocation

Historic Weather in Heidelberg — Graph

°F

Heidelberg temperature yesterday

Maximum temperature yesterday: 57 °F (at 7:20 AM)
Minimum temperature yesterday: 43 °F (at 10:50 PM)
Average temperature yesterday: 52 °F

Past Weeks' High & Low Weather Summary

 TemperatureHumidityPressure
High64 °F (Mar 17, 3:50 PM)100% (Mar 21, 9:20 AM)30.30 "Hg (Mar 21, 9:20 AM)
Low30 °F (Mar 24, 5:20 AM)34% (Mar 20, 3:50 PM)29.50 "Hg (Mar 30, 5:50 AM)
Average50 °F63%29.97 "Hg
* Reported Mar 17 1:20 PM — Apr 1 2:50 PM, Heidelberg, Weather by CustomWeather, © 2015

Note: Actual official high and low records may vary slightly from our data, if they occured in-between our weather recording intervals... More about our weather records

Advertising

Heidelberg weather history for previous 24 hours

 ConditionsComfort  
Time TempWeatherWind HumidityBarometerVisibility
2:50 PM
Wed, Apr 1
48 °FScattered clouds.15 mph46%30.12 "HgN/A
2:20 PM45 °FScattered showers. Scattered clouds.18 mph53%30.12 "HgN/A
1:50 PM46 °FScattered clouds.17 mph53%30.12 "HgN/A
1:20 PM46 °FScattered clouds.17 mph50%30.12 "HgN/A
12:50 PM46 °FBroken clouds.16 mph50%30.12 "HgN/A
12:20 PM46 °FPassing clouds.16 mph50%30.12 "HgN/A
11:50 AM45 °FPartly sunny.17 mph49%30.12 "HgN/A
11:20 AM45 °FPartly sunny.14 mph53%30.12 "HgN/A
10:50 AM45 °FPartly sunny.18 mph57%30.09 "HgN/A
10:20 AM43 °FPartly sunny.14 mph57%30.09 "HgN/A
9:50 AM43 °FMore clouds than sun.13 mph57%30.09 "HgN/A
9:20 AM43 °FBroken clouds.13 mph57%30.07 "HgN/A
8:50 AM41 °FPassing clouds.13 mph61%30.07 "HgN/A
8:20 AM41 °FPassing clouds.10 mph61%30.04 "HgN/A
7:50 AM41 °FPassing clouds.9 mph70%30.04 "HgN/A
7:20 AM41 °FPassing clouds.9 mph70%30.04 "HgN/A
6:50 AM41 °FPassing clouds.17 mph66%30.01 "HgN/A
6:20 AM41 °FPassing clouds.8 mph76%29.98 "HgN/A
5:50 AM41 °FPassing clouds.12 mph70%29.98 "HgN/A
10:50 PM
Tue, Mar 31
43 °FPassing clouds.15 mph81%29.89 "HgN/A
9:50 PM45 °FSprinkles. Passing clouds.21 mph76%29.89 "HgN/A
9:20 PM48 °FClear.15 mph62%29.86 "Hg10 mi
8:50 PM48 °FPassing clouds.14 mph62%29.86 "HgN/A
8:20 PM48 °FSunny.16 mph66%29.86 "Hg10 mi
7:50 PM48 °FSunny.17 mph66%29.83 "Hg10 mi
7:20 PM48 °FSunny.17 mph62%29.83 "Hg10 mi
6:50 PM48 °FSunny.17 mph62%29.80 "Hg10 mi
6:20 PM50 °FSunny.17 mph62%29.80 "Hg10 mi
5:50 PM48 °FPartly sunny.20 mph66%29.77 "HgN/A
5:20 PM48 °FBroken clouds.18 mph71%29.77 "HgN/A
4:50 PM46 °FScattered showers. Broken clouds.20 mph76%29.74 "HgN/A
4:20 PM46 °FScattered showers. Partly sunny.28 mph82%29.74 "Hg6 mi
3:50 PM50 °FScattered showers. Partly sunny.22 mph62%29.68 "HgN/A
3:20 PM52 °FScattered showers. Scattered clouds.30 mph72%29.68 "HgN/A
Weather by CustomWeather, © 2015

See weather overviewHow to use our weather pages